Weather History for PHNL - July, 2013

Change the Weather History Date:

Monday, July 8, 2013

  Actual Average Record
Temperature  
Mean Temperature 81 °F 81 °F  
Max Temperature 88 °F 88 °F 91 °F (1968)
Min Temperature 74 °F 74 °F 69 °F (1990)
Degree Days  
Heating Degree Days 0 0  
Month to date heating degree days 0 0  
Since 1 June heating degree days 0 0  
Since 1 July heating degree days 0 0  
Cooling Degree Days 16 16  
Month to date cooling degree days 111 128  
Year to date cooling degree days 1980 2086  
Since 1 June cooling degree days 520 584  
Growing Degree Days 30 (Base 50)    
Moisture  
Dew Point 67 °F    
Average Humidity 60    
Maximum Humidity 74    
Minimum Humidity 46    
Precipitation  
Precipitation T in 0.01 in 0.46 in (1965)
Month to date precipitation 0.02 0.09  
Year to date precipitation 8.65 7.92  
Snow  
Snow 0.00 in - - ()
Month to date snowfall 0.0  
Since 1 June snowfall 0.0  
Since 1 July snowfall 0.0  
Snow Depth 0.00 in    
Sea Level Pressure  
Sea Level Pressure 29.97 in    
Wind  
Wind Speed 8 mph (ENE)    
Max Wind Speed 18 mph    
Max Gust Speed 23 mph    
Visibility 10 miles    
Events Rain    
T = Trace of Precipitation, MM = Missing Value Source: NWS Daily Summary

Daily Weather History Graph

Daily Weather History Graph

Search for Another Location

Airport or City:

Trip Planner

Search our weather history database for the weather conditions in past years. The results will help you decide how hot, cold, wet, or windy it might be!

Date:

Astronomy

Jul. 08, 2013 Rise Set
Actual Time 5:55 AM HST 7:17 PM HST
Civil Twilight 5:31 AM HST 7:42 PM HST
Nautical Twilight 5:01 AM HST 8:11 PM HST
Astronomical Twilight 4:31 AM HST 8:41 PM HST
Moon 6:24 AM HST (7/8) 7:41 PM HST (7/8)
Length of Visible Light 14h 11m
Length of Day
13h 21m
New Moon, 0% of the Moon is Illuminated
Jul 8
New Moon
Jul 15
First Quarter
Jul 22
Full
Jul 29
Last Quarter
Aug 6
New

Hourly Weather History & Observations

Time (HST) Temp. Heat Index Dew Point Humidity Pressure Visibility Wind Dir Wind Speed Gust Speed Precip Events Conditions
12:53 AM 75.9 °F - 66.0 °F 71% 29.96 in 10.0 mi NNE 4.6 mph - N/A   Partly Cloudy
1:53 AM 75.9 °F - 66.9 °F 74% 29.94 in 10.0 mi ENE 5.8 mph - N/A   Partly Cloudy
2:53 AM 75.0 °F - 66.0 °F 73% 29.93 in 10.0 mi Calm Calm - N/A   Partly Cloudy
3:53 AM 75.0 °F - 66.0 °F 73% 29.92 in 10.0 mi Calm Calm - N/A   Partly Cloudy
4:53 AM 75.0 °F - 66.9 °F 76% 29.93 in 10.0 mi North 3.5 mph - N/A   Scattered Clouds
5:53 AM 75.0 °F - 66.9 °F 76% 29.93 in 10.0 mi North 3.5 mph - N/A   Scattered Clouds
6:53 AM 77.0 °F - 66.9 °F 71% 29.95 in 10.0 mi ENE 6.9 mph - N/A   Scattered Clouds
7:53 AM 77.0 °F - 68.0 °F 74% 29.97 in 10.0 mi NNW 3.5 mph - N/A   Scattered Clouds
8:53 AM 81.0 °F 83.0 °F 66.0 °F 60% 29.98 in 10.0 mi ENE 10.4 mph 16.1 mph N/A   Scattered Clouds
9:53 AM 82.9 °F 84.6 °F 64.9 °F 54% 29.98 in 10.0 mi East 10.4 mph - N/A   Scattered Clouds
10:53 AM 86.0 °F 87.3 °F 64.0 °F 48% 29.98 in 10.0 mi ENE 9.2 mph 19.6 mph N/A   Scattered Clouds
11:53 AM 86.0 °F 87.6 °F 64.9 °F 49% 29.97 in 10.0 mi NE 11.5 mph 20.7 mph N/A   Scattered Clouds
12:53 PM 84.0 °F 87.0 °F 68.0 °F 58% 29.97 in 10.0 mi NE 18.4 mph 21.9 mph N/A   Scattered Clouds
1:53 PM 82.0 °F 85.9 °F 70.0 °F 67% 29.96 in 10.0 mi NE 11.5 mph - 0.00 in Rain Light Rain
2:53 PM 87.1 °F 88.3 °F 64.0 °F 46% 29.96 in 10.0 mi East 12.7 mph 17.3 mph 0.00 in   Mostly Cloudy
3:53 PM 84.9 °F 86.6 °F 64.9 °F 51% 29.96 in 10.0 mi ENE 10.4 mph 19.6 mph N/A   Scattered Clouds
4:53 PM 86.0 °F 87.6 °F 64.9 °F 49% 29.96 in 10.0 mi East 12.7 mph - N/A   Scattered Clouds
5:53 PM 82.9 °F 85.4 °F 66.9 °F 58% 29.96 in 10.0 mi ENE 15.0 mph - N/A   Scattered Clouds
6:53 PM 81.0 °F 83.0 °F 66.0 °F 60% 29.99 in 10.0 mi East 11.5 mph - N/A   Scattered Clouds
7:53 PM 80.1 °F 82.3 °F 66.9 °F 64% 30.00 in 10.0 mi East 8.1 mph - N/A   Mostly Cloudy
8:53 PM 79.0 °F - 66.9 °F 66% 30.02 in 10.0 mi East 9.2 mph - N/A   Scattered Clouds
9:53 PM 79.0 °F - 68.0 °F 69% 30.04 in 10.0 mi ENE 11.5 mph - N/A   Scattered Clouds
10:53 PM 78.1 °F - 68.0 °F 71% 30.05 in 10.0 mi ENE 10.4 mph - N/A   Partly Cloudy
11:53 PM 78.1 °F - 66.9 °F 68% 30.04 in 10.0 mi East 8.1 mph - N/A   Partly Cloudy